Location: Kuffner-Sternwarte
(48.2130°N, 16.2960°E)
Time: 04:52:28
(UTC+02:00)

COROT - Pass Details

Date: 28 May 2017
Orbit: 602 x 888 km, 90.0° (Epoch: 26 July)

Event Time Altitude Azimuth Distance (km) Brightness Sun altitude
Rises 22:42:39 0° 348° (NNW) 3,098 10.6 -14.4°
Reaches altitude 10° 22:45:43 10° 328° (NNW) 2,119 9.7 -14.7°
Maximum altitude 22:48:36 17° 289° (WNW) 1,670 8.4 -14.9°
Drops below altitude 10° 22:51:22 10° 250° (WSW) 2,022 8.3 -15.1°
Sets 22:54:12 0° 230° (SW) 2,889 8.9 -15.4°
